Location: *
(43.0896°N, 0.1979°E)
Time: 03:41:46
(UTC+00:00)

Daily predictions for brighter satellites

Satellite Brightness Start Highest point End
(mag) Time Altitude Azimuth Time Altitude Azimuth Time Altitude Azimuth
Lacrosse 5 4.4 02:42:08 17° NE 02:42:08 17° NE 02:44:02 10° ENE
Cosmos 2360 Rocket 4.2 02:43:13 10° N 02:47:51 25° NE 02:52:27 10° ESE
Cosmos 2082 Rocket 4.3 03:11:09 18° N 03:11:09 18° N 03:12:57 10° N
USA 267 3.8 03:11:55 10° NE 03:17:26 49° N 03:17:26 49° N
IDEFIX/ARIANE 42P 4.5 03:15:08 10° N 03:16:53 21° N 03:16:53 21° N
Cosmos 1553 Rocket 4.2 03:26:48 64° NNE 03:26:48 64° NNE 03:32:03 10° N
Cosmos 2219 Rocket 4.4 03:28:17 10° N 03:32:40 22° NE 03:37:02 10° E
CENTAUR R/B 4.1 03:31:46 10° NNW 03:39:24 45° NE 03:47:47 10° ESE
PAYLOAD A 4.4 03:35:46 10° NNE 03:40:52 66° E 03:40:52 66° E
USA 234 3.2 03:45:18 10° SE 03:51:15 62° SSW 03:51:15 62° SSW
Lacrosse 4 Rocket 2.4 03:51:56 48° ENE 03:51:56 48° ENE 03:56:05 10° SE
Milstar 3 Cent rocket 4.1 03:57:03 14° SSE 03:57:03 14° SSE 03:58:26 10° SE
ATLAS 5 CENTAUR R/B 4.0 03:55:37 10° SE 03:57:33 14° ESE 03:59:44 10° ENE
ISS -1.1 03:58:45 17° NNE 03:58:45 17° NNE 04:00:16 10° NE
Cosmos 2221 4.1 04:04:42 27° N 04:04:42 27° N 04:06:44 10° N
Cosmos 1992 Rocket 4.1 03:59:23 10° NNW 04:04:38 74° ENE 04:09:49 10° SSE
Cosmos 2344 3.4 04:06:15 48° SW 04:08:34 80° NW 04:16:27 10° NE
BREEZE-M DEB (TANK) 3.8 04:08:38 37° NNW 04:09:49 46° NNE 04:20:44 10° E
FENGYUN 3A 4.0 04:06:20 10° NNE 04:11:45 64° ESE 04:15:59 17° S
Cosmos 1833 4.0 04:12:28 59° SSW 04:13:35 85° WNW 04:19:15 10° NNE
Cosmos 2237 4.1 04:12:49 53° WNW 04:13:55 65° WSW 04:19:32 10° S
S3M 3.9 04:13:56 56° WSW 04:14:40 60° W 04:20:47 10° N
Meteor 2-2 Rocket 4.3 04:15:21 56° WSW 04:16:01 60° WNW 04:22:01 10° N
Landsat 5 3.3 04:18:43 68° ESE 04:19:03 75° ENE 04:22:56 10° N
Cosmos 1745 Rocket 4.0 04:15:00 10° NNW 04:21:06 54° W 04:23:55 31° SSW
Sich 1 3.9 04:18:02 10° N 04:22:22 50° ENE 04:26:37 10° SSE
Lacrosse 5 2.3 04:21:22 27° NNW 04:24:04 60° NE 04:29:04 10° ESE
ALOS 2.2 04:22:53 10° NNE 04:27:35 85° ESE 04:30:10 27° S
Meteor 1-31 Rocket 4.4 04:27:21 10° NNE 04:30:55 34° E 04:34:26 10° SSE
Cosmos 2360 Rocket 2.2 04:26:39 10° NNW 04:32:12 56° WSW 04:37:43 10° S
Cosmos 1709 Rocket 3.9 04:26:51 10° N 04:33:14 76° W 04:39:35 10° S
CZ-4B R/B 4.1 04:32:22 10° ESE 04:34:38 19° ENE 04:36:54 10° NNE
Cosmos 2333 4.2 04:29:00 10° NNW 04:34:49 86° ENE 04:40:37 10° SSE
ARIANE 5 R/B 4.3 04:31:58 10° NNW 04:33:41 16° NW 04:33:41 16° NW
USA 276 2.4 04:36:12 64° NE 04:36:12 64° NE 04:39:01 10° ENE
Cosmos 909 Rocket 4.2 04:30:58 16° SSW 04:36:25 75° ESE 04:42:40 10° NE
CZ-2C R/B 2.8 04:34:55 10° N 04:39:09 38° WNW 04:39:09 38° WNW
USA 238 DEB 3.8 04:36:24 10° NW 04:43:44 84° SW 04:51:20 10° SSE
USA 238 3.8 04:36:31 10° NW 04:43:50 84° SW 04:51:26 10° SSE
H-2A R/B 1.9 04:40:53 10° SSE 04:45:09 89° ENE 04:49:21 10° NNW
OAO 3 Rocket 4.4 04:44:12 25° SSW 04:45:42 30° S 04:49:56 10° ESE
SeaSat 1 3.0 04:42:31 10° SE 04:47:20 60° ENE 04:52:13 10° NNW
Cosmos 1437 Rocket 4.0 04:48:00 10° SSE 04:51:53 44° E 04:55:44 10° NNE
ATLAS 3B R/B 4.5 04:46:07 10° NNW 04:52:03 29° NE 04:58:11 10° E
SKYMED 2 4.5 04:48:37 10° SSE 04:52:48 51° ENE 04:57:02 10° N
CZ-4C R/B 2.2 04:49:30 16° SSW 04:53:19 71° ESE 04:59:01 10° NE
Cosmos 1151 Rocket 3.7 04:49:12 10° S 04:53:24 55° E 04:57:37 10° NNE
Cosmos 1484 Rocket 2.7 04:49:51 10° N 04:53:29 56° WNW 04:54:50 34° SW
Cosmos 2333 Rocket 2.2 04:48:27 10° NNW 04:54:15 84° WSW 05:00:01 10° SSE
Cosmos 1782 4.0 04:51:37 10° SSE 04:55:22 44° E 04:59:10 10° NNE
Cosmos 1633 Rocket 3.7 04:52:39 10° N 04:57:01 59° E 05:01:19 10° SSE
MOS 1 Rocket 3.5 04:55:58 10° SSE 05:00:16 68° ENE 05:04:50 10° N
Cosmos 2251 Rocket 3.9 04:59:28 24° WSW 05:02:21 44° WNW 05:07:30 10° N
CZ-4B R/B 3.5 05:01:40 10° NNE 05:05:23 87° W 05:09:00 10° SSW
H-2A R/B 4.0 04:56:34 19° WSW 05:07:45 40° SSW 05:12:38 10° SE
COSMOS 2487 3.4 05:08:44 26° WNW 05:08:46 26° WNW 05:11:44 10° N
Geosat 4.5 05:04:44 10° NNE 05:09:25 40° NW 05:12:31 19° WSW
SWAS 4.4 05:06:07 10° NNW 05:10:29 87° WSW 05:14:47 10° SSE
Cosmos 2297 Rocket 4.0 05:05:55 10° SSE 05:10:53 33° ESE 05:15:52 10° NE
NOSS 3-2 (A) 4.3 05:06:13 10° NW 05:13:39 50° WSW 05:21:51 10° S
Cosmos 2219 Rocket 2.2 05:11:29 10° NNW 05:17:05 64° WSW 05:22:41 10° S
Cosmos 1606 4.0 05:17:19 21° W 05:17:35 21° WNW 05:20:35 10° NNW
Cosmos 614 Rocket 4.3 05:16:52 10° SW 05:21:49 44° WNW 05:26:49 10° N
GPS 2-04 Rocket1 4.1 05:22:18 14° SW 05:24:43 26° S 05:28:00 10° ESE
COSMOS 2428 2.7 05:19:24 10° NNW 05:25:04 66° WSW 05:30:43 10° SSE
Cosmos 407 Rocket 3.4 05:21:39 10° SSW 05:26:49 69° WNW 05:31:58 10° NNE
Iridium 51 4.3 05:23:41 10° NNW 05:27:20 46° W 05:30:45 10° SSW
Cosmos 1500 4.1 05:24:15 10° N 05:27:59 53° E 05:31:42 10° SSE
CZ-3 R/B 3.8 05:14:31 10° SW 05:29:03 29° S 05:34:43 10° SE
Cosmos 1515 Rocket 4.1 05:24:53 10° S 05:29:09 63° E 05:33:29 10° NNE
Cosmos 1328 Rocket 3.4 05:25:06 10° SSW 05:29:23 72° W 05:33:42 10° N
Lacrosse 4 Rocket 2.9 05:28:23 15° WNW 05:30:08 18° WSW 05:33:07 10° SSW
CENTAUR R/B 3.3 05:22:27 10° NW 05:30:33 58° WSW 05:39:14 10° SSE
CSL-04 DEB 4.3 05:27:21 10° S 05:31:17 59° WSW 05:35:11 10° NNW
ISS -2.8 05:31:55 10° NW 05:35:10 43° NNE 05:38:24 10° E
Meteor 1-25 Rocket 4.4 05:30:14 10° NNW 05:35:33 48° W 05:40:50 10° SSW
Cosmos 1190 Rocket 4.0 05:31:08 10° SSW 05:36:27 75° WNW 05:41:47 10° NNE
ERS-2 3.1 05:33:16 10° SSE 05:36:48 52° ENE 05:40:21 10° N
Cosmos 1602 3.9 05:33:26 10° NNW 05:37:15 51° W 05:41:02 10° S
Cosmos 1470 Rocket 3.5 05:35:23 10° N 05:39:45 84° W 05:44:04 10° S
COSMO-SKYMED 1 2.8 05:36:42 10° S 05:40:53 47° W 05:45:06 10° NNW
ATLAS 5 CENTAUR R/B 1.6 05:37:39 10° SW 05:41:30 53° NW 05:45:50 10° NNE
Cosmos 1933 4.4 05:39:08 10° SW 05:42:29 25° WNW 05:45:51 10° NNW
Cosmos 676 Rocket 4.3 05:37:52 10° SSW 05:43:10 77° ESE 05:48:28 10° NNE
Cosmos 2219 3.8 05:41:49 10° S 05:47:24 63° ESE 05:52:58 10° NNE
PSLV R/B 4.0 05:43:29 10° SSE 05:47:41 87° ENE 05:51:52 10° NNW
NOSS 3-4 (A) 3.6 05:44:02 10° SW 05:49:46 55° NW 05:55:57 10° NNE
NOSS 3-4 (C) 3.5 05:44:07 10° SW 05:49:51 56° NW 05:56:02 10° NNE
deb Chang Zheng 4 3.5 05:45:48 10° N 05:50:05 69° WNW 05:54:21 10° SSW
RESURS DK-1 3.4 05:47:17 10° S 05:51:16 51° ESE 05:55:16 10° NE
Cosmos 2074 Rocket 4.2 05:47:02 10° NNW 05:52:56 47° W 05:58:47 10° SSW
Cosmos 2228 Rocket 4.3 05:48:46 10° SSE 05:53:11 51° E 05:57:38 10° NNE
NOSS 3-2 (C) 4.5 05:46:58 10° NW 05:54:18 45° WSW 06:02:22 10° S
YAOGAN 6 2.4 05:52:21 10° N 05:55:51 71° WNW 05:59:18 10° SSW
Meteor 1-14 Rocket 4.3 05:50:25 10° NNW 05:56:01 66° W 06:01:44 10° S
Envisat 3.0 05:52:11 10° N 05:57:17 80° WNW 06:02:21 10° SSW
Cosmos 2154 Rocket 4.0 05:51:42 10° NNW 05:57:52 67° W 06:04:04 10° S
Cosmos 1933 Rocket 3.6 05:55:53 10° N 06:00:21 77° W 06:04:48 10° S
SMAP 4.4 05:56:11 10° NNE 06:00:41 47° E 06:05:10 10° S
ATLAS 2AS CENTAUR R/B 3.1 05:56:42 10° SW 06:04:36 71° NW 06:12:25 10° NNE
